Weather History for LEPA - September, 2012

Change the Weather History Date:

Monday, September 10, 2012

  Actual Average Record
Temperature  
Mean Temperature 73 °F -  
Max Temperature 83 °F 77 °F 93 °F (2004)
Min Temperature 63 °F 59 °F 55 °F (2000)
Cooling Degree Days 8    
Growing Degree Days 23 (Base 50)    
Moisture  
Dew Point 66 °F    
Average Humidity 77    
Maximum Humidity 100    
Minimum Humidity 47    
Precipitation  
Precipitation 0.00 in 0.07 in - ()
Sea Level Pressure  
Sea Level Pressure 30.04 in    
Wind  
Wind Speed 3 mph ()    
Max Wind Speed 17 mph    
Max Gust Speed -    
Visibility 6.2 miles    
Events      
Averages and records for this station are not official NWS values.
T = Trace of Precipitation, MM = Missing Value Source: Averaged Metar Reports

Daily Weather History Graph

Daily Weather History Graph

Search for Another Location

Airport or City:

Trip Planner

Search our weather history database for the weather conditions in past years. The results will help you decide how hot, cold, wet, or windy it might be!

Date:

Astronomy

Sep. 10, 2012 Rise Set
Actual Time 7:25 AM CEST 8:05 PM CEST
Civil Twilight 6:58 AM CEST 8:32 PM CEST
Nautical Twilight 6:26 AM CEST 9:04 PM CEST
Astronomical Twilight 5:53 AM CEST 9:37 PM CEST
Moon 1:34 AM CEST (9/10) 4:23 PM CEST (9/10)
Length of Visible Light 13h 33m
Length of Day
12h 39m
Waning Crescent, 32% of the Moon is Illuminated
Sep 10
Waning Crescent
Sep 16
New
Sep 22
First Quarter
Sep 30
Full
Oct 8
Last Quarter

Hourly Weather History & Observations

Time (CEST) Temp. Heat Index Dew Point Humidity Pressure Visibility Wind Dir Wind Speed Gust Speed Precip Events Conditions
12:00 AM 69.8 °F - 66.2 °F 88% 30.06 in 5.6 mi Calm Calm - N/A   Partly Cloudy
12:30 AM 69.8 °F - 66.2 °F 88% 30.06 in 5.0 mi ENE 2.3 mph - N/A   Partly Cloudy
1:00 AM 68.0 °F - 64.4 °F 88% 30.06 in 5.0 mi Calm Calm - N/A   Partly Cloudy
1:30 AM 68.0 °F - 64.4 °F 88% 30.06 in 5.0 mi Calm Calm - N/A   Partly Cloudy
2:00 AM 67 °F - 62 °F 79% 30.09 in 5 mi North 2.3 mph - -   Mist
2:00 AM 68.0 °F - 66.2 °F 94% 30.06 in 5.0 mi North 1.2 mph - N/A   Partly Cloudy
2:30 AM 68.0 °F - 64.4 °F 88% 30.06 in 5.0 mi ENE 2.3 mph - N/A   Partly Cloudy
3:00 AM 66.2 °F - 64.4 °F 94% 30.06 in 5.0 mi ENE 3.5 mph - N/A   Partly Cloudy
3:30 AM 68.0 °F - 64.4 °F 88% 30.06 in 5.0 mi Variable 1.2 mph - N/A   Partly Cloudy
4:00 AM 66.2 °F - 64.4 °F 94% 30.04 in 5.0 mi NNE 1.2 mph - N/A   Partly Cloudy
4:30 AM 66.2 °F - 64.4 °F 94% 30.04 in 5.0 mi NNE 1.2 mph - N/A   Partly Cloudy
5:00 AM 64.4 °F - 62.6 °F 94% 30.04 in 5.0 mi ENE 2.3 mph - N/A   Partly Cloudy
5:30 AM 64.4 °F - 62.6 °F 94% 30.04 in 5.0 mi NE 2.3 mph - N/A   Partly Cloudy
6:00 AM 64.4 °F - 62.6 °F 94% 30.04 in 5.6 mi Calm Calm - N/A   Partly Cloudy
6:30 AM 64.4 °F - 62.6 °F 94% 30.04 in 5.6 mi Variable 1.2 mph - N/A   Partly Cloudy
7:00 AM 64.4 °F - 62.6 °F 94% 30.04 in 5.6 mi Variable 2.3 mph - N/A   Partly Cloudy
7:30 AM 64.4 °F - 62.6 °F 94% 30.04 in 5.6 mi NE 4.6 mph - N/A   Partly Cloudy
8:00 AM 65 °F - 62 °F 86% 30.06 in 7 mi Calm Calm - -  
8:00 AM 64.4 °F - 64.4 °F 100% 30.04 in - ENE 3.5 mph - N/A   Clear
8:30 AM 68.0 °F - 66.2 °F 94% 30.04 in - Variable 2.3 mph - N/A   Clear
9:00 AM 69.8 °F - 66.2 °F 88% 30.04 in - Variable 1.2 mph - N/A   Clear
9:30 AM 73.4 °F - 68.0 °F 83% 30.06 in - Calm Calm - N/A   Clear
10:00 AM 77.0 °F - 68.0 °F 74% 30.06 in - Calm Calm - N/A   Clear
10:30 AM 80.6 °F 82.7 °F 66.2 °F 61% 30.06 in - South 2.3 mph - N/A   Clear
11:00 AM 80.6 °F 82.7 °F 66.2 °F 61% 30.06 in - South 2.3 mph - N/A   Clear
11:30 AM 80.6 °F 82.7 °F 66.2 °F 61% 30.06 in - WSW 4.6 mph - N/A   Clear
12:00 PM 78.8 °F - 68.0 °F 69% 30.06 in 6.2 mi WSW 9.2 mph - N/A   Partly Cloudy
12:30 PM 80.6 °F 83.2 °F 68.0 °F 65% 30.06 in 6.2 mi WSW 10.4 mph - N/A   Partly Cloudy
1:00 PM 80.6 °F 83.2 °F 68.0 °F 65% 30.06 in 6.2 mi WSW 12.7 mph - N/A   Partly Cloudy
1:30 PM 80.6 °F 83.2 °F 68.0 °F 65% 30.06 in 6.2 mi WSW 13.8 mph - N/A   Partly Cloudy
2:00 PM 82 °F - 65 °F 47% 30.06 in 16 mi SW 17.3 mph - -   Scattered Clouds
2:00 PM 82.4 °F 85.4 °F 68.0 °F 62% 30.06 in 6.2 mi WSW 15.0 mph - N/A   Partly Cloudy
2:30 PM 82.4 °F 85.4 °F 68.0 °F 62% 30.04 in 6.2 mi SW 17.3 mph - N/A   Partly Cloudy
3:00 PM 82.4 °F 85.4 °F 68.0 °F 62% 30.04 in 6.2 mi SW 16.1 mph - N/A   Partly Cloudy
3:30 PM 82.4 °F 85.4 °F 68.0 °F 62% 30.04 in 6.2 mi SW 15.0 mph - N/A   Partly Cloudy
4:00 PM 82.4 °F 85.4 °F 68.0 °F 62% 30.04 in 6.2 mi South 9.2 mph - N/A   Partly Cloudy
4:30 PM 82.4 °F 86.3 °F 69.8 °F 66% 30.04 in 6.2 mi South 9.2 mph - N/A   Partly Cloudy
5:00 PM 80.6 °F 83.2 °F 68.0 °F 65% 30.04 in 6.2 mi SW 12.7 mph - N/A   Partly Cloudy
5:30 PM 80.6 °F 83.9 °F 69.8 °F 70% 30.04 in 6.2 mi SW 13.8 mph - N/A   Partly Cloudy
6:00 PM 80.6 °F 83.2 °F 68.0 °F 65% 30.01 in 6.2 mi SW 12.7 mph - N/A   Partly Cloudy
6:30 PM 78.8 °F - 69.8 °F 74% 30.01 in 6.2 mi SW 10.4 mph - N/A   Partly Cloudy
7:00 PM 78.8 °F - 68.0 °F 69% 30.01 in 6.2 mi SSW 4.6 mph - N/A   Partly Cloudy
7:30 PM 78.8 °F - 68.0 °F 69% 30.01 in 6.2 mi South 3.5 mph - N/A   Partly Cloudy
8:00 PM 78 °F - 65 °F 55% 30.02 in 12 mi Calm Calm - -   Scattered Clouds
8:00 PM 78.8 °F - 68.0 °F 69% 30.01 in 6.2 mi Calm Calm - N/A   Partly Cloudy
8:30 PM 77.0 °F - 68.0 °F 74% 30.01 in - Variable 1.2 mph - N/A   Clear
9:00 PM 77.0 °F - 69.8 °F 78% 30.04 in - Calm Calm - N/A   Clear
9:30 PM 77.0 °F - 68.0 °F 74% 30.04 in - Variable 1.2 mph - N/A   Clear
10:00 PM 77.0 °F - 68.0 °F 74% 30.04 in - ESE 2.3 mph - N/A   Clear
10:30 PM 75.2 °F - 68.0 °F 78% 30.04 in - Variable 1.2 mph - N/A   Clear
11:00 PM 73.4 °F - 68.0 °F 83% 30.04 in - NE 1.2 mph - N/A   Clear
11:30 PM 71.6 °F - 66.2 °F 83% 30.04 in - NE 1.2 mph - N/A   Clear